DW7093 Weather Reports


Display with metric or nautical units.
time (UTC)temp
F
wind
direction
speed
MPH
gust
MPH
rain 1hr
in
rain 24hr
in
rain mn
in
humidity
%
barometer
mb
20260509023006 52 243 0.0 1.0 0.00 0.08 0.01 100 1008.6
20260509021506 53 243 0.0 1.0 0.00 0.08 0.01 100 1008.7
20260509020006 54 239 0.0 0.0 0.00 0.08 0.01 100 1008.6
20260509014515 54 239 0.0 1.0 0.00 0.12 0.01 100 1008.6
20260509013004 55 239 0.0 1.0 0.00 0.12 0.01 100 1008.5
20260509011504 55 239 0.0 1.0 0.00 0.12 0.01 100 1008.4
20260509010003 56 262 0.0 4.0 0.00 0.12 0.01 100 1008.2
20260509004502 56 237 0.0 3.0 0.00 0.12 0.01 100 1008.1
20260509003004 57 222 0.0 0.0 0.00 0.12 0.01 100 1008.1
20260509001502 58 242 0.0 0.0 0.00 0.12 0.01 100 1008.1
20260509000001 58 206 0.0 0.0 0.00 0.12 0.01 100 1008.0
20260508234600 58 129 0.0 3.0 0.00 0.12 0.01 100 1008.1
20260508233059 58 21 0.0 7.0 0.00 0.12 0.01 100 1008.1
20260508231602 58 115 0.0 4.0 0.00 0.12 0.01 100 1008.2
20260508230100 59 215 0.0 5.0 0.00 0.12 0.01 100 1008.4
20260508224600 59 258 0.0 5.0 0.00 0.12 0.01 100 1008.5
20260508223056 59 171 1.0 8.0 0.00 0.12 0.01 100 1008.3
20260508221559 58 236 0.0 7.0 0.00 0.12 0.01 100 1008.4
20260508220054 59 311 0.0 6.0 0.00 0.12 0.01 100 1008.4
20260508214554 59 255 0.0 4.0 0.00 0.12 0.01 100 1008.5
20260508213053 60 117 1.0 4.0 0.00 0.12 0.01 100 1008.5
20260508211552 60 256 0.0 6.0 0.00 0.12 0.01 100 1008.4
20260508210050 60 260 0.0 5.0 0.00 0.12 0.01 100 1008.7
20260508204550 59 149 0.0 6.0 0.00 0.12 0.01 100 1009.0
20260508203045 59 151 1.0 3.0 0.00 0.12 0.01 100 1009.1
20260508201551 58 160 0.0 3.0 0.00 0.12 0.01 100 1009.2
20260508200040 57 147 2.0 7.0 0.00 0.12 0.01 100 1009.4
20260508194538 57 158 1.0 4.0 0.00 0.12 0.01 100 1009.6
20260508193034 56 167 1.0 3.0 0.00 0.12 0.01 100 1009.8
20260508191536 56 196 0.0 0.0 0.00 0.12 0.01 100 1010.3
20260508190035 56 134 0.0 3.0 0.00 0.12 0.01 100 1010.4
20260508184529 55 172 0.0 3.0 0.00 0.12 0.01 100 1010.7
20260508183029 55 143 0.0 3.0 0.00 0.12 0.01 100 1010.8
20260508181531 54 131 0.0 0.0 0.00 0.12 0.01 100 1010.9
20260508180020 53 137 0.0 0.0 0.00 0.12 0.01 100 1011.1
20260508174518 53 170 0.0 0.0 0.00 0.12 0.01 100 1011.4
20260508173021 53 174 0.0 0.0 0.00 0.12 0.01 100 1011.6
20260508171523 53 219 0.0 3.0 0.00 0.12 0.01 100 1011.9
20260508170014 53 146 0.0 2.0 0.00 0.12 0.01 100 1011.9
20260508164512 53 252 0.0 5.0 0.00 0.12 0.01 100 1012.2
20260508163017 53 257 3.0 5.0 0.00 0.12 0.01 100 1012.5
20260508161511 54 133 0.0 2.0 0.00 0.12 0.01 100 1012.3
20260508160011 54 159 0.0 4.0 0.00 0.12 0.01 100 1012.3
20260508154509 54 200 0.0 1.0 0.00 0.12 0.01 100 1012.0
20260508153006 53 217 0.0 6.0 0.00 0.12 0.01 100 1012.1
20260508151505 52 304 0.0 3.0 0.01 0.12 0.01 100 1012.3
20260508150004 51 256 1.0 3.0 0.01 0.12 0.01 100 1012.4
20260508144557 50 171 0.0 3.0 0.01 0.12 0.01 100 1012.5
20260508143102 49 213 0.0 2.0 0.01 0.12 0.01 100 1012.8
20260508141615 49 201 0.0 4.0 0.00 0.11 0.00 100 1013.0
20260508140055 49 269 0.0 4.0 0.00 0.11 0.00 100 1013.0
20260508134602 49 277 0.0 4.0 0.00 0.11 0.00 100 1012.9
20260508133051 49 221 1.0 5.0 0.00 0.11 0.00 100 1012.9
20260508131550 49 234 0.0 0.0 0.00 0.11 0.00 100 1012.9
20260508130049 48 259 0.0 2.0 0.00 0.11 0.00 100 1012.6
20260508124556 48 249 0.0 3.0 0.00 0.11 0.00 100 1012.7
20260508123049 47 246 0.0 4.0 0.00 0.11 0.00 100 1012.7
20260508121543 47 257 0.0 3.0 0.00 0.11 0.00 100 1012.7
20260508120040 46 220 0.0 2.0 0.00 0.11 0.00 100 1012.5
20260508114539 46 263 0.0 4.0 0.00 0.11 0.00 100 1012.5
20260508113048 45 285 1.0 4.0 0.00 0.11 0.00 100 1012.3
20260508111536 44 242 0.0 1.0 0.00 0.11 0.00 100 1012.2
20260508110035 44 245 0.0 1.0 0.00 0.11 0.00 100 1012.4
20260508104536 44 245 0.0 2.0 0.00 0.11 0.00 100 1012.3
20260508103037 44 223 0.0 2.0 0.00 0.11 0.00 100 1012.2
20260508101535 44 190 0.0 2.0 0.00 0.11 0.00 100 1011.9
20260508100033 45 310 0.0 3.0 0.00 0.11 0.00 100 1011.9
20260508094531 45 216 0.0 4.0 0.00 0.11 0.00 100 1012.1
20260508093030 45 300 0.0 3.0 0.00 0.11 0.00 100 1012.2
20260508091536 44 90 0.0 6.0 0.00 0.11 0.00 100 1012.2
20260508090037 44 314 1.0 7.0 0.00 0.11 0.00 100 1012.3
20260508084525 43 177 0.0 0.0 0.00 0.11 0.00 100 1012.2
20260508083024 43 196 0.0 0.0 0.00 0.11 0.00 100 1012.3
20260508081525 43 188 0.0 0.0 0.00 0.11 0.00 100 1012.3
20260508080033 42 240 0.0 0.0 0.00 0.11 0.00 100 1012.3
20260508074529 43 227 0.0 2.0 0.00 0.11 0.00 100 1012.4
20260508073025 43 240 0.0 4.0 0.00 0.11 0.00 100 1012.2
20260508071525 43 255 0.0 3.0 0.00 0.11 0.00 100 1012.2
20260508070020 43 257 0.0 2.0 0.00 0.11 0.00 100 1012.2
20260508064520 43 270 0.0 2.0 0.00 0.11 0.00 100 1012.4
20260508063016 43 250 0.0 3.0 0.00 0.11 0.00 100 1012.5
20260508061515 43 234 0.0 2.0 0.00 0.11 0.00 100 1012.5
20260508060014 43 129 0.0 1.0 0.00 0.11 0.00 100 1012.6
20260508054511 43 142 0.0 1.0 0.00 0.11 0.00 100 1012.8
20260508053012 43 142 0.0 0.0 0.00 0.11 0.00 100 1012.8
20260508051508 43 142 0.0 1.0 0.00 0.11 0.00 100 1012.8
20260508050008 44 165 0.0 2.0 0.00 0.11 0.00 100 1012.8
20260508044507 44 165 0.0 2.0 0.00 0.11 0.00 100 1012.9
20260508043007 44 164 0.0 2.0 0.01 0.11 0.00 100 1012.8
20260508041505 44 162 0.0 0.0 0.01 0.11 0.00 100 1012.8
20260508040008 44 167 0.0 0.0 0.01 0.11 0.00 100 1012.8
20260508034501 44 180 1.0 3.0 0.01 0.11 0.11 100 1012.7
20260508033100 45 169 0.0 0.0 0.00 0.10 0.10 100 1012.9
20260508031600 45 186 1.0 3.0 0.01 0.10 0.10 100 1013.1
20260508030100 45 164 0.0 3.0 0.05 0.10 0.10 100 1013.1
20260508024600 46 165 0.0 5.0 0.10 0.10 0.10 100 1013.0